Location: Potomac
(46.8816°N, 113.5795°W)
Time: 08:12:54
(UTC+00:00)

NANOSAT C BR1 - Pass Details

Date: 26 June 2022
Orbit: 584 x 599 km, 98.0° (Epoch: 17 August)

Event Time Altitude Azimuth Distance (km) Brightness Sun altitude
Rises 08:29:51 0° 32° (NNE) 2,846 ? -18.8°
Reaches altitude 10° 08:33:00 10° 58° (ENE) 1,941 ? -18.6°
Maximum altitude 08:35:14 14° 90° (E) 1,690 ? -18.6°
Drops below altitude 10° 08:37:28 10° 122° (ESE) 1,937 ? -18.5°
Enters shadow 08:37:49 - 126° (SE) 2,015 ? -18.4°
